Retour au catalogue

FREGAT DEB

LostUNKNOWN
NORAD 46324·DEBRIS·🇷🇺 Russia

Lancé Jul 18, 2011 depuis Baikonur Cosmodrome

Loading…

Prochains Passages (prochaines 24 heures)

TLE

PériméSource: Space-Track

Époque: Sep 30, 2020, 06:08 UTC

1 46324U 11037LC  20274.25623683 -.00058552  00000-0 -55249+0 0  9992
2 46324  52.5146 169.7976 1772262 194.8125 159.3423 10.09797485   744

Suivez FREGAT DEB en temps réel avec AllMySat

Download on the App Store